• In Österreich
  • Länderverzeichnis
  • Für 7 Tage
  • Wassertemperatur
  • Satellitenkarten
  • Wetterkarte
  • News
  • Widgets
  • user-avatar
    Anmelden

    Stündliche Wetter Shatry

    Heute, 19 September, Mittwoch

    Zeit Temperatur Niederschläge Wind Luftdruck Luftfeuchtigkeit
    00:00 +10°C° 0 mm 2 m/S 746 mmHg 90%
    01:00 +10°C° 0 mm 2 m/S 746 mmHg 92%
    02:00 +10°C° 0 mm 2 m/S 746 mmHg 96%
    03:00 +10°C° 0 mm 2 m/S 746 mmHg 96%
    04:00 +12°C° 0 mm 2 m/S 746 mmHg 96%
    05:00 +11°C° 0 mm 3 m/S 745 mmHg 96%
    06:00 +12°C° 0 mm 3 m/S 745 mmHg 91%
    07:00 +14°C° 0 mm 3 m/S 745 mmHg 86%
    08:00 +16°C° 0 mm 3 m/S 745 mmHg 81%
    09:00 +18°C° 0 mm 4 m/S 745 mmHg 74%
    10:00 +20°C° 0 mm 4 m/S 745 mmHg 67%
    11:00 +21°C° 0 mm 4 m/S 745 mmHg 59%
    12:00 +22°C° 0 mm 4 m/S 745 mmHg 57%
    13:00 +23°C° 0 mm 4 m/S 745 mmHg 55%
    14:00 +25°C° 0 mm 4 m/S 745 mmHg 54%
    15:00 +23°C° 0 mm 4 m/S 744 mmHg 60%
    16:00 +22°C° 0 mm 3 m/S 744 mmHg 66%
    17:00 +21°C° 0 mm 2 m/S 744 mmHg 72%
    18:00 +20°C° 0 mm 2 m/S 744 mmHg 78%
    19:00 +18°C° 0 mm 2 m/S 744 mmHg 84%
    20:00 +17°C° 0 mm 2 m/S 744 mmHg 90%
    21:00 +17°C° 0 mm 2 m/S 744 mmHg 92%
    22:00 +16°C° 0 mm 2 m/S 744 mmHg 93%
    23:00 +16°C° 0 mm 2 m/S 744 mmHg 95%

    Morgen, 20 September, Donnerstag

    Zeit Temperatur Niederschläge Wind Luftdruck Luftfeuchtigkeit
    00:00 +16°C° 0 mm 2 m/S 744 mmHg 96%
    01:00 +16°C° 0 mm 2 m/S 745 mmHg 97%
    02:00 +15°C° 0 mm 2 m/S 745 mmHg 97%
    03:00 +15°C° 0 mm 2 m/S 745 mmHg 98%
    04:00 +14°C° 0 mm 2 m/S 745 mmHg 98%
    05:00 +14°C° 0 mm 2 m/S 745 mmHg 98%
    06:00 +15°C° 0 mm 2 m/S 745 mmHg 95%
    07:00 +15°C° 0 mm 2 m/S 746 mmHg 92%
    08:00 +16°C° 0 mm 2 m/S 746 mmHg 88%
    09:00 +18°C° 0 mm 2 m/S 746 mmHg 80%
    10:00 +19°C° 0 mm 2 m/S 746 mmHg 72%
    11:00 +21°C° 0 mm 2 m/S 746 mmHg 63%
    12:00 +23°C° 0 mm 2 m/S 746 mmHg 60%
    13:00 +22°C° 0 mm 3 m/S 746 mmHg 57%
    14:00 +24°C° 0 mm 3 m/S 746 mmHg 54%
    15:00 +23°C° 0 mm 2 m/S 746 mmHg 60%
    16:00 +21°C° 0 mm 2 m/S 746 mmHg 66%
    17:00 +20°C° 0 mm 2 m/S 746 mmHg 72%
    18:00 +19°C° 0 mm 2 m/S 746 mmHg 77%
    19:00 +17°C° 0 mm 2 m/S 746 mmHg 82%
    20:00 +16°C° 0 mm 2 m/S 747 mmHg 87%
    21:00 +16°C° 0 mm 2 m/S 747 mmHg 88%
    22:00 +15°C° 0 mm 2 m/S 747 mmHg 90%
    23:00 +15°C° 0 mm 2 m/S 747 mmHg 91%

    übermorgen, 21 September, Freitag

    Zeit Temperatur Niederschläge Wind Luftdruck Luftfeuchtigkeit
    00:00 +15°C° 0 mm 2 m/S 747 mmHg 91%
    01:00 +15°C° 0 mm 2 m/S 747 mmHg 92%
    02:00 +14°C° 0 mm 2 m/S 747 mmHg 92%
    03:00 +14°C° 0 mm 2 m/S 747 mmHg 93%
    04:00 +14°C° 0 mm 2 m/S 747 mmHg 94%
    05:00 +14°C° 0 mm 2 m/S 747 mmHg 96%
    06:00 +15°C° 0 mm 2 m/S 747 mmHg 92%
    07:00 +16°C° 0 mm 2 m/S 748 mmHg 88%
    08:00 +18°C° 0 mm 2 m/S 748 mmHg 84%
    09:00 +20°C° 0 mm 2 m/S 748 mmHg 78%
    10:00 +21°C° 0 mm 3 m/S 748 mmHg 72%
    11:00 +24°C° 0 mm 3 m/S 747 mmHg 66%
    12:00 +25°C° 0.3 mm 3 m/S 747 mmHg 66%
    13:00 +25°C° 0.3 mm 3 m/S 747 mmHg 65%
    14:00 +26°C° 0.3 mm 3 m/S 747 mmHg 64%
    15:00 +25°C° 0.2 mm 3 m/S 747 mmHg 69%
    16:00 +24°C° 0.2 mm 3 m/S 747 mmHg 74%
    17:00 +23°C° 0.2 mm 2 m/S 746 mmHg 80%
    18:00 +21°C° 0 mm 2 m/S 746 mmHg 83%
    19:00 +20°C° 0 mm 3 m/S 746 mmHg 86%
    20:00 +19°C° 0 mm 3 m/S 746 mmHg 89%
    21:00 +19°C° 0 mm 3 m/S 745 mmHg 88%
    22:00 +18°C° 0 mm 3 m/S 745 mmHg 88%
    23:00 +18°C° 0 mm 3 m/S 745 mmHg 87%

    22 September, Samstag

    Zeit Temperatur Niederschläge Wind Luftdruck Luftfeuchtigkeit
    00:00 +17°C° 0 mm 4 m/S 745 mmHg 85%
    01:00 +17°C° 0 mm 4 m/S 744 mmHg 83%
    02:00 +17°C° 0 mm 4 m/S 744 mmHg 80%
    03:00 +17°C° 0 mm 4 m/S 743 mmHg 80%
    04:00 +17°C° 0 mm 4 m/S 743 mmHg 79%
    05:00 +16°C° 0 mm 5 m/S 742 mmHg 78%
    06:00 +17°C° 0 mm 5 m/S 742 mmHg 74%
    07:00 +17°C° 0 mm 5 m/S 741 mmHg 71%
    08:00 +19°C° 0 mm 6 m/S 741 mmHg 68%
    09:00 +20°C° 0 mm 6 m/S 741 mmHg 65%
    10:00 +21°C° 0 mm 6 m/S 741 mmHg 62%
    11:00 +22°C° 0 mm 6 m/S 741 mmHg 59%
    12:00 +20°C° 0.1 mm 6 m/S 742 mmHg 64%
    13:00 +16°C° 0.1 mm 5 m/S 742 mmHg 70%
    14:00 +14°C° 0.1 mm 4 m/S 742 mmHg 76%
    15:00 +13°C° 0.1 mm 3 m/S 743 mmHg 78%
    16:00 +12°C° 0.1 mm 3 m/S 743 mmHg 80%
    17:00 +10°C° 0.1 mm 2 m/S 743 mmHg 82%
    18:00 +10°C° 0.2 mm 2 m/S 743 mmHg 84%
    19:00 +10°C° 0.2 mm 2 m/S 744 mmHg 87%
    20:00 +10°C° 0.2 mm 2 m/S 744 mmHg 89%
    21:00 +10°C° 0.4 mm 2 m/S 744 mmHg 91%
    22:00 +10°C° 0.4 mm 2 m/S 744 mmHg 92%
    23:00 +10°C° 0.4 mm 3 m/S 744 mmHg 93%

    23 September, Sonntag

    Zeit Temperatur Niederschläge Wind Luftdruck Luftfeuchtigkeit
    00:00 +9°C° 0.3 mm 2 m/S 744 mmHg 94%
    01:00 +9°C° 0.3 mm 2 m/S 744 mmHg 94%
    02:00 +9°C° 0.3 mm 2 m/S 743 mmHg 95%
    03:00 +9°C° 0 mm 2 m/S 743 mmHg 95%
    04:00 +9°C° 0 mm 2 m/S 743 mmHg 95%
    05:00 +9°C° 0 mm 2 m/S 743 mmHg 96%
    06:00 +9°C° 0 mm 2 m/S 743 mmHg 94%
    07:00 +9°C° 0 mm 2 m/S 742 mmHg 93%
    08:00 +9°C° 0 mm 2 m/S 742 mmHg 92%
    09:00 +10°C° 0 mm 2 m/S 742 mmHg 86%
    10:00 +12°C° 0 mm 2 m/S 742 mmHg 81%
    11:00 +13°C° 0 mm 2 m/S 742 mmHg 76%
    12:00 +14°C° 0.1 mm 2 m/S 742 mmHg 71%
    13:00 +13°C° 0.1 mm 3 m/S 741 mmHg 65%
    14:00 +14°C° 0.1 mm 3 m/S 741 mmHg 59%
    15:00 +14°C° 0.3 mm 2 m/S 741 mmHg 66%
    16:00 +13°C° 0.3 mm 2 m/S 741 mmHg 73%
    17:00 +12°C° 0.3 mm 2 m/S 741 mmHg 80%
    18:00 +10°C° 0 mm 2 m/S 741 mmHg 84%
    19:00 +9°C° 0 mm 2 m/S 741 mmHg 88%
    20:00 +8°C° 0 mm 2 m/S 741 mmHg 92%
    21:00 +7°C° 0 mm 2 m/S 741 mmHg 93%
    22:00 +7°C° 0 mm 2 m/S 741 mmHg 94%
    23:00 +7°C° 0 mm 2 m/S 741 mmHg 95%

    24 September, Montag

    Zeit Temperatur Niederschläge Wind Luftdruck Luftfeuchtigkeit
    00:00 +6°C° 0 mm 2 m/S 741 mmHg 95%
    01:00 +6°C° 0 mm 2 m/S 741 mmHg 96%
    02:00 +6°C° 0 mm 1 m/S 741 mmHg 96%
    03:00 +6°C° 0 mm 1 m/S 741 mmHg 96%
    04:00 +6°C° 0 mm 1 m/S 741 mmHg 97%
    05:00 +4°C° 0 mm 2 m/S 741 mmHg 97%
    06:00 +5°C° 0 mm 2 m/S 741 mmHg 94%
    07:00 +6°C° 0 mm 2 m/S 741 mmHg 91%
    08:00 +7°C° 0 mm 2 m/S 741 mmHg 89%
    09:00 +9°C° 0 mm 2 m/S 741 mmHg 81%
    10:00 +10°C° 0 mm 3 m/S 741 mmHg 74%
    11:00 +12°C° 0 mm 3 m/S 741 mmHg 66%
    12:00 +12°C° 0 mm 3 m/S 741 mmHg 63%
    13:00 +13°C° 0 mm 3 m/S 740 mmHg 59%
    14:00 +13°C° 0 mm 4 m/S 739 mmHg 56%
    15:00 +13°C° 0 mm 3 m/S 739 mmHg 60%
    16:00 +12°C° 0 mm 3 m/S 738 mmHg 64%
    17:00 +11°C° 0 mm 3 m/S 738 mmHg 68%
    18:00 +10°C° 0.4 mm 3 m/S 737 mmHg 74%
    19:00 +10°C° 0.4 mm 4 m/S 737 mmHg 80%
    20:00 +8°C° 0.4 mm 4 m/S 737 mmHg 86%
    21:00 +8°C° 0.6 mm 4 m/S 736 mmHg 87%
    22:00 +8°C° 0.6 mm 5 m/S 735 mmHg 88%
    23:00 +7°C° 0.6 mm 5 m/S 735 mmHg 88%
    Mehr zeigen